Вернуться в каталог

FREGAT DEB

LostUNKNOWN
NORAD 46401·DEBRIS·🇷🇺 Russia

Запущен Jul 18, 2011 с Baikonur Cosmodrome

Loading…

Ближайшие Пролёты (ближайшие 24 часа)

TLE

УстаревшееSource: Space-Track

Эпоха: Oct 19, 2020, 23:38 UTC

1 46401U 11037LG  20293.98537623  .00004040  00000-0  13587+0 0  9997
2 46401  51.2131 157.9898 1531671 189.3394 167.5458  9.71160276  4849

Отслеживайте FREGAT DEB в реальном времени с AllMySat

Download on the App Store